When you browse on this site, cookies collect data to enhance your experience and personalize the content and advertising you see.
Visit our Privacy Policy to learn more. By continuing to use the site, you agree to this use of cookies and data.
  • en Suisse
  • Liste des pays
  • À 7 jours
  • Température de l'eau
  • Carte satellitaire
  • Carte météo
  • Widgets météo
  • user-avatar
    Se connecter

    Météo par heure à Francistown

    Ce jour, 24 Janvier, Jeudi

    Heure Température Précipitation Vent Pression Humidité
    00:00 +26°C° 0 mm 3 m/s 674 mmHg 46%
    01:00 +26°C° 0 mm 3 m/s 674 mmHg 47%
    02:00 +25°C° 0 mm 3 m/s 674 mmHg 49%
    03:00 +25°C° 0 mm 3 m/s 674 mmHg 49%
    04:00 +24°C° 0 mm 3 m/s 674 mmHg 49%
    05:00 +24°C° 0 mm 3 m/s 674 mmHg 49%
    06:00 +25°C° 0 mm 2 m/s 675 mmHg 46%
    07:00 +27°C° 0 mm 2 m/s 675 mmHg 43%
    08:00 +28°C° 0 mm 1 m/s 676 mmHg 40%
    09:00 +30°C° 0 mm 1 m/s 676 mmHg 36%
    10:00 +32°C° 0 mm 2 m/s 677 mmHg 32%
    11:00 +34°C° 0 mm 2 m/s 677 mmHg 28%
    12:00 +36°C° 0 mm 3 m/s 677 mmHg 26%
    13:00 +37°C° 0 mm 3 m/s 676 mmHg 25%
    14:00 +38°C° 0 mm 4 m/s 676 mmHg 24%
    15:00 +37°C° 0 mm 4 m/s 676 mmHg 25%
    16:00 +37°C° 0 mm 4 m/s 675 mmHg 26%
    17:00 +36°C° 0 mm 4 m/s 675 mmHg 27%
    18:00 +35°C° 0 mm 4 m/s 675 mmHg 31%
    19:00 +33°C° 0 mm 4 m/s 675 mmHg 35%
    20:00 +32°C° 0 mm 4 m/s 675 mmHg 39%
    21:00 +30°C° 0 mm 5 m/s 675 mmHg 42%
    22:00 +29°C° 0 mm 5 m/s 675 mmHg 44%
    23:00 +28°C° 0 mm 6 m/s 676 mmHg 47%

    Demain, 25 Janvier, Vendredi

    Heure Température Précipitation Vent Pression Humidité
    00:00 +27°C° 0 mm 5 m/s 676 mmHg 47%
    01:00 +27°C° 0 mm 5 m/s 676 mmHg 46%
    02:00 +26°C° 0 mm 5 m/s 676 mmHg 46%
    03:00 +25°C° 0 mm 4 m/s 676 mmHg 47%
    04:00 +25°C° 0 mm 4 m/s 676 mmHg 48%
    05:00 +24°C° 0 mm 3 m/s 676 mmHg 50%
    06:00 +25°C° 0 mm 4 m/s 676 mmHg 52%
    07:00 +25°C° 0 mm 4 m/s 677 mmHg 54%
    08:00 +26°C° 0 mm 5 m/s 677 mmHg 56%
    09:00 +28°C° 0 mm 5 m/s 678 mmHg 49%
    10:00 +30°C° 0 mm 4 m/s 678 mmHg 42%
    11:00 +34°C° 0 mm 4 m/s 678 mmHg 36%
    12:00 +35°C° 0 mm 4 m/s 678 mmHg 32%
    13:00 +36°C° 0 mm 4 m/s 678 mmHg 29%
    14:00 +37°C° 0 mm 3 m/s 677 mmHg 26%
    15:00 +37°C° 0 mm 4 m/s 677 mmHg 25%
    16:00 +37°C° 0 mm 4 m/s 676 mmHg 24%
    17:00 +37°C° 0 mm 4 m/s 676 mmHg 24%
    18:00 +35°C° 0 mm 4 m/s 676 mmHg 28%
    19:00 +34°C° 0 mm 4 m/s 676 mmHg 32%
    20:00 +32°C° 0 mm 4 m/s 676 mmHg 36%
    21:00 +30°C° 0 mm 4 m/s 676 mmHg 39%
    22:00 +29°C° 0 mm 4 m/s 676 mmHg 41%
    23:00 +28°C° 0 mm 5 m/s 676 mmHg 43%

    Après-demain, 26 Janvier, Samedi

    Heure Température Précipitation Vent Pression Humidité
    00:00 +27°C° 0 mm 4 m/s 676 mmHg 46%
    01:00 +26°C° 0 mm 3 m/s 676 mmHg 49%
    02:00 +26°C° 0 mm 2 m/s 676 mmHg 52%
    03:00 +25°C° 0 mm 2 m/s 676 mmHg 54%
    04:00 +24°C° 0 mm 2 m/s 676 mmHg 57%
    05:00 +24°C° 0 mm 3 m/s 676 mmHg 59%
    06:00 +25°C° 0 mm 4 m/s 677 mmHg 59%
    07:00 +25°C° 0 mm 4 m/s 677 mmHg 58%
    08:00 +26°C° 0 mm 5 m/s 678 mmHg 58%
    09:00 +28°C° 0 mm 5 m/s 678 mmHg 51%
    10:00 +32°C° 0 mm 4 m/s 678 mmHg 44%
    11:00 +34°C° 0 mm 4 m/s 679 mmHg 38%
    12:00 +35°C° 0 mm 3 m/s 678 mmHg 34%
    13:00 +37°C° 0 mm 2 m/s 677 mmHg 30%
    14:00 +37°C° 0 mm 1 m/s 677 mmHg 26%
    15:00 +38°C° 0 mm 2 m/s 676 mmHg 27%
    16:00 +37°C° 0 mm 3 m/s 676 mmHg 27%
    17:00 +37°C° 0 mm 3 m/s 675 mmHg 27%
    18:00 +35°C° 0.1 mm 4 m/s 675 mmHg 30%
    19:00 +34°C° 0.1 mm 4 m/s 675 mmHg 34%
    20:00 +32°C° 0.1 mm 4 m/s 675 mmHg 37%
    21:00 +30°C° 0 mm 5 m/s 676 mmHg 41%
    22:00 +29°C° 0 mm 5 m/s 676 mmHg 44%
    23:00 +28°C° 0 mm 6 m/s 676 mmHg 48%

    27 Janvier, Dimanche

    Heure Température Précipitation Vent Pression Humidité
    00:00 +27°C° 0 mm 6 m/s 676 mmHg 52%
    01:00 +27°C° 0 mm 7 m/s 676 mmHg 56%
    02:00 +26°C° 0 mm 7 m/s 676 mmHg 60%
    03:00 +24°C° 0 mm 7 m/s 676 mmHg 65%
    04:00 +23°C° 0 mm 7 m/s 677 mmHg 70%
    05:00 +23°C° 0 mm 6 m/s 677 mmHg 75%
    06:00 +23°C° 0 mm 6 m/s 677 mmHg 73%
    07:00 +24°C° 0 mm 6 m/s 678 mmHg 71%
    08:00 +24°C° 0 mm 6 m/s 678 mmHg 68%
    09:00 +26°C° 0 mm 6 m/s 678 mmHg 66%
    10:00 +27°C° 0 mm 6 m/s 678 mmHg 63%
    11:00 +28°C° 0 mm 5 m/s 678 mmHg 60%
    12:00 +28°C° 0.1 mm 6 m/s 678 mmHg 57%
    13:00 +29°C° 0.1 mm 6 m/s 677 mmHg 54%
    14:00 +30°C° 0.1 mm 7 m/s 677 mmHg 51%
    15:00 +30°C° 0 mm 7 m/s 676 mmHg 48%
    16:00 +32°C° 0 mm 6 m/s 676 mmHg 44%
    17:00 +32°C° 0 mm 6 m/s 676 mmHg 41%
    18:00 +29°C° 0 mm 6 m/s 676 mmHg 50%
    19:00 +27°C° 0 mm 6 m/s 676 mmHg 60%
    20:00 +23°C° 0 mm 7 m/s 676 mmHg 69%
    21:00 +23°C° 0 mm 7 m/s 677 mmHg 71%
    22:00 +22°C° 0 mm 7 m/s 677 mmHg 74%
    23:00 +22°C° 0 mm 6 m/s 678 mmHg 76%

    28 Janvier, Lundi

    Heure Température Précipitation Vent Pression Humidité
    00:00 +22°C° 0 mm 6 m/s 678 mmHg 76%
    01:00 +22°C° 0 mm 6 m/s 677 mmHg 77%
    02:00 +21°C° 0 mm 6 m/s 677 mmHg 77%
    03:00 +21°C° 0 mm 6 m/s 677 mmHg 78%
    04:00 +21°C° 0 mm 6 m/s 677 mmHg 79%
    05:00 +20°C° 0 mm 5 m/s 677 mmHg 80%
    06:00 +21°C° 0 mm 5 m/s 677 mmHg 78%
    07:00 +21°C° 0 mm 5 m/s 677 mmHg 75%
    08:00 +22°C° 0 mm 5 m/s 678 mmHg 73%
    09:00 +25°C° 0 mm 5 m/s 678 mmHg 63%
    10:00 +28°C° 0 mm 4 m/s 678 mmHg 54%
    11:00 +30°C° 0 mm 4 m/s 679 mmHg 44%
    12:00 +33°C° 0 mm 4 m/s 678 mmHg 40%
    13:00 +34°C° 0 mm 3 m/s 678 mmHg 36%
    14:00 +35°C° 0 mm 3 m/s 677 mmHg 32%
    15:00 +35°C° 0 mm 4 m/s 677 mmHg 34%
    16:00 +34°C° 0 mm 5 m/s 676 mmHg 37%
    17:00 +34°C° 0 mm 6 m/s 676 mmHg 39%
    18:00 +30°C° 0.2 mm 6 m/s 676 mmHg 48%
    19:00 +28°C° 0.2 mm 6 m/s 676 mmHg 56%
    20:00 +26°C° 0.2 mm 6 m/s 676 mmHg 64%
    21:00 +24°C° 0.1 mm 6 m/s 676 mmHg 67%
    22:00 +24°C° 0.1 mm 6 m/s 676 mmHg 69%
    23:00 +23°C° 0.1 mm 6 m/s 677 mmHg 72%

    29 Janvier, Mardi

    Heure Température Précipitation Vent Pression Humidité
    00:00 +23°C° 0 mm 6 m/s 677 mmHg 73%
    01:00 +22°C° 0 mm 5 m/s 676 mmHg 75%
    02:00 +22°C° 0 mm 5 m/s 676 mmHg 76%
    03:00 +21°C° 0 mm 5 m/s 677 mmHg 78%
    04:00 +21°C° 0 mm 4 m/s 677 mmHg 81%
    05:00 +21°C° 0 mm 4 m/s 677 mmHg 83%
    06:00 +22°C° 0 mm 4 m/s 677 mmHg 78%
    07:00 +23°C° 0 mm 4 m/s 678 mmHg 73%
    08:00 +25°C° 0 mm 4 m/s 678 mmHg 68%
    09:00 +27°C° 0 mm 4 m/s 679 mmHg 59%
    10:00 +29°C° 0 mm 4 m/s 679 mmHg 49%
    11:00 +32°C° 0 mm 4 m/s 679 mmHg 39%
    12:00 +33°C° 0 mm 4 m/s 678 mmHg 35%
    13:00 +34°C° 0 mm 4 m/s 678 mmHg 32%
    14:00 +35°C° 0 mm 4 m/s 677 mmHg 28%
    15:00 +35°C° 0 mm 4 m/s 677 mmHg 28%
    16:00 +35°C° 0 mm 4 m/s 676 mmHg 27%
    17:00 +35°C° 0 mm 4 m/s 676 mmHg 27%
    18:00 +34°C° 0 mm 5 m/s 676 mmHg 32%
    19:00 +32°C° 0 mm 5 m/s 676 mmHg 37%
    20:00 +29°C° 0 mm 6 m/s 677 mmHg 42%
    21:00 +28°C° 0 mm 6 m/s 677 mmHg 46%
    22:00 +28°C° 0 mm 5 m/s 677 mmHg 50%
    23:00 +27°C° 0 mm 5 m/s 677 mmHg 54%
    Voir plus